GLD1620 SBAR-SBSV

Flight info

Callsign GLD1620
Flight time 0h 37m
Altitude 24000
Route GATU2A DABAD UZ30 ILPIX UDES2A
Aircraft A20N/M-SDE2E3FGHIRWXY/LB1

Departure

Time 2026-05-03 23:38
Airport Aracaju - Santa Maria Airport (SBAR)

Arrival

Time 2026-05-04 00:16
Airport Deputado Luiz Eduardo Magalhães International Airport (SBSV)
Time Latitude Longitude Altitude Speed Heading
2026-05-03 22:58 -10.98633 -37.07275 31 ft 0 kts 182°
2026-05-03 23:29 -10.98628 -37.07275 31 ft 4 kts 181°
2026-05-03 23:29 -10.98601 -37.07272 31 ft 4 kts 199°
2026-05-03 23:30 -10.98580 -37.07259 31 ft 4 kts 247°
2026-05-03 23:30 -10.98577 -37.07249 31 ft 1 kts 270°
2026-05-03 23:33 -10.98562 -37.07271 31 ft 11 kts 321°
2026-05-03 23:33 -10.98518 -37.07296 31 ft 4 kts 41°
2026-05-03 23:34 -10.98500 -37.07242 31 ft 10 kts 53°
2026-05-03 23:34 -10.98441 -37.07240 31 ft 11 kts 356°
2026-05-03 23:34 -10.98399 -37.07288 31 ft 11 kts 285°
2026-05-03 23:34 -10.98392 -37.07372 32 ft 13 kts 271°
2026-05-03 23:35 -10.98389 -37.07470 33 ft 15 kts 274°
2026-05-03 23:35 -10.98382 -37.07601 34 ft 24 kts 272°
2026-05-03 23:35 -10.98378 -37.07785 32 ft 28 kts 270°
2026-05-03 23:35 -10.98344 -37.07964 31 ft 25 kts 294°
2026-05-03 23:36 -10.98356 -37.08025 31 ft 3 kts 179°
2026-05-03 23:36 -10.98368 -37.08010 33 ft 0 kts 96°
2026-05-03 23:37 -10.98369 -37.07996 32 ft 6 kts 96°
2026-05-03 23:38 -10.98387 -37.07665 33 ft 91 kts 92°
2026-05-03 23:38 -10.98418 -37.06757 53 ft 159 kts 94°
2026-05-03 23:38 -10.98471 -37.05530 508 ft 189 kts 95°
2026-05-03 23:38 -10.98607 -37.04072 919 ft 226 kts 103°
2026-05-03 23:39 -10.99190 -37.02567 1380 ft 219 kts 122°
2026-05-03 23:39 -11.00217 -37.01554 1571 ft 204 kts 153°
2026-05-03 23:39 -11.01626 -37.01256 1643 ft 214 kts 176°
2026-05-03 23:39 -11.03195 -37.01273 1843 ft 239 kts 178°
2026-05-03 23:40 -11.04872 -37.01249 2611 ft 248 kts 175°
2026-05-03 23:40 -11.06589 -37.01123 3669 ft 247 kts 172°
2026-05-03 23:40 -11.08315 -37.00921 4558 ft 253 kts 170°
2026-05-03 23:40 -11.10063 -37.00672 5510 ft 254 kts 169°
2026-05-03 23:41 -11.11833 -37.00418 6395 ft 260 kts 174°
2026-05-03 23:41 -11.13624 -37.00696 7221 ft 268 kts 201°
2026-05-03 23:41 -11.15154 -37.01818 8025 ft 277 kts 228°
2026-05-03 23:41 -11.16050 -37.03565 8837 ft 285 kts 255°
2026-05-03 23:42 -11.16372 -37.05563 9646 ft 290 kts 262°
2026-05-03 23:42 -11.16575 -37.07627 10408 ft 295 kts 263°
2026-05-03 23:42 -11.16777 -37.09712 10901 ft 310 kts 263°
2026-05-03 23:42 -11.17030 -37.11977 11140 ft 334 kts 262°
2026-05-03 23:43 -11.17337 -37.14432 11368 ft 356 kts 261°
2026-05-03 23:43 -11.17665 -37.16932 11890 ft 365 kts 261°
2026-05-03 23:43 -11.18007 -37.19492 12572 ft 369 kts 261°
2026-05-03 23:43 -11.18357 -37.22116 13247 ft 374 kts 261°
2026-05-03 23:44 -11.18709 -37.24746 13888 ft 379 kts 261°
2026-05-03 23:44 -11.19064 -37.27401 14482 ft 382 kts 261°
2026-05-03 23:44 -11.19424 -37.30102 15108 ft 384 kts 261°
2026-05-03 23:44 -11.19784 -37.32809 15715 ft 387 kts 261°
2026-05-03 23:45 -11.20146 -37.35530 16301 ft 390 kts 261°
2026-05-03 23:45 -11.20507 -37.38250 16882 ft 393 kts 261°
2026-05-03 23:45 -11.20875 -37.41020 17451 ft 396 kts 261°
2026-05-03 23:45 -11.21246 -37.43813 18013 ft 399 kts 261°
2026-05-03 23:46 -11.21619 -37.46624 18539 ft 402 kts 261°
2026-05-03 23:46 -11.21993 -37.49444 19012 ft 405 kts 261°
2026-05-03 23:46 -11.22373 -37.52310 19511 ft 408 kts 261°
2026-05-03 23:46 -11.22754 -37.55183 19973 ft 411 kts 261°
2026-05-03 23:47 -11.23137 -37.58080 20448 ft 414 kts 261°
2026-05-03 23:47 -11.23520 -37.60984 20914 ft 417 kts 261°
2026-05-03 23:47 -11.23904 -37.63891 21377 ft 420 kts 261°
2026-05-03 23:47 -11.24294 -37.66845 21848 ft 423 kts 262°
2026-05-03 23:48 -11.24757 -37.69811 22292 ft 425 kts 257°
2026-05-03 23:48 -11.25572 -37.72715 22748 ft 428 kts 249°
2026-05-03 23:48 -11.26643 -37.75550 23185 ft 431 kts 248°
2026-05-03 23:48 -11.27758 -37.78516 23642 ft 434 kts 249°
2026-05-03 23:49 -11.28806 -37.81324 23909 ft 436 kts 249°
2026-05-03 23:49 -11.29883 -37.84218 23991 ft 436 kts 249°
2026-05-03 23:49 -11.30960 -37.87114 24007 ft 436 kts 249°
2026-05-03 23:49 -11.32029 -37.89986 24008 ft 436 kts 249°
2026-05-03 23:50 -11.33104 -37.92875 24007 ft 436 kts 249°
2026-05-03 23:50 -11.33814 -37.94780 24011 ft 436 kts 249°
2026-05-03 23:50 -11.35138 -37.98684 24010 ft 436 kts 257°
2026-05-03 23:50 -11.35460 -38.01716 24015 ft 436 kts 271°
2026-05-03 23:51 -11.35057 -38.04807 24011 ft 436 kts 285°
2026-05-03 23:51 -11.33950 -38.07682 24010 ft 436 kts 300°
2026-05-03 23:51 -11.32240 -38.10222 24009 ft 435 kts 307°
2026-05-03 23:51 -11.30710 -38.12879 24009 ft 436 kts 293°
2026-05-03 23:52 -11.29850 -38.15796 24008 ft 437 kts 279°
2026-05-03 23:52 -11.29692 -38.18919 24010 ft 436 kts 265°
2026-05-03 23:52 -11.30265 -38.21940 24009 ft 436 kts 251°
2026-05-03 23:52 -11.31525 -38.24725 24008 ft 435 kts 237°
2026-05-03 23:53 -11.33409 -38.27129 24008 ft 432 kts 223°
2026-05-03 23:53 -11.35745 -38.28957 24010 ft 430 kts 208°
2026-05-03 23:53 -11.38461 -38.30185 24019 ft 428 kts 197°
2026-05-03 23:53 -11.41299 -38.31199 24008 ft 428 kts 200°
2026-05-03 23:54 -11.43978 -38.32451 24012 ft 429 kts 206°
2026-05-03 23:54 -11.46542 -38.33983 24014 ft 429 kts 211°
2026-05-03 23:54 -11.48986 -38.35727 24018 ft 430 kts 216°
2026-05-03 23:54 -11.51383 -38.37577 24020 ft 430 kts 214°
2026-05-03 23:55 -11.53830 -38.39317 24013 ft 429 kts 214°
2026-05-03 23:55 -11.56217 -38.41123 24021 ft 430 kts 216°
2026-05-03 23:55 -11.58587 -38.42977 24011 ft 430 kts 216°
2026-05-03 23:55 -11.60958 -38.44833 24014 ft 429 kts 216°
2026-05-03 23:56 -11.62520 -38.46049 23984 ft 424 kts 216°
2026-05-03 23:56 -11.64840 -38.47845 23919 ft 414 kts 216°
2026-05-03 23:56 -11.67116 -38.49593 23812 ft 402 kts 213°
2026-05-03 23:56 -11.69508 -38.50923 23697 ft 385 kts 198°
2026-05-03 23:57 -11.72046 -38.51567 23576 ft 368 kts 184°
2026-05-03 23:57 -11.74555 -38.51625 23460 ft 354 kts 177°
2026-05-03 23:57 -11.76977 -38.51592 23182 ft 347 kts 177°
2026-05-03 23:57 -11.79387 -38.51566 22756 ft 344 kts 178°
2026-05-03 23:58 -11.81775 -38.51543 22328 ft 342 kts 178°
2026-05-03 23:58 -11.84127 -38.51519 21924 ft 340 kts 178°
2026-05-03 23:58 -11.86491 -38.51495 21518 ft 337 kts 178°
2026-05-03 23:58 -11.88809 -38.51470 21131 ft 335 kts 177°
2026-05-03 23:59 -11.91158 -38.51445 20742 ft 333 kts 177°
2026-05-03 23:59 -11.93466 -38.51420 20356 ft 330 kts 177°
2026-05-03 23:59 -11.95724 -38.51396 19979 ft 328 kts 177°
2026-05-03 23:59 -11.98001 -38.51371 19616 ft 326 kts 177°
2026-05-04 00:00 -12.00297 -38.51347 19254 ft 324 kts 177°
2026-05-04 00:00 -12.02549 -38.51323 18891 ft 322 kts 177°
2026-05-04 00:00 -12.04784 -38.51299 18541 ft 321 kts 177°
2026-05-04 00:00 -12.06982 -38.51275 18174 ft 319 kts 177°
2026-05-04 00:01 -12.09192 -38.51251 17776 ft 316 kts 177°
2026-05-04 00:01 -12.11380 -38.51228 17388 ft 314 kts 177°
2026-05-04 00:01 -12.13564 -38.51206 16994 ft 312 kts 177°
2026-05-04 00:01 -12.15725 -38.51183 16632 ft 310 kts 177°
2026-05-04 00:02 -12.17842 -38.51162 16276 ft 307 kts 176°
2026-05-04 00:02 -12.20008 -38.51139 15906 ft 305 kts 176°
2026-05-04 00:02 -12.22151 -38.51117 15534 ft 303 kts 176°
2026-05-04 00:02 -12.24225 -38.51094 15203 ft 301 kts 176°
2026-05-04 00:03 -12.26338 -38.51071 14825 ft 300 kts 176°
2026-05-04 00:03 -12.28387 -38.51049 14476 ft 298 kts 176°
2026-05-04 00:03 -12.30458 -38.51027 14143 ft 296 kts 176°
2026-05-04 00:03 -12.32505 -38.51005 13792 ft 294 kts 176°
2026-05-04 00:04 -12.34531 -38.50984 13393 ft 292 kts 176°
2026-05-04 00:04 -12.36572 -38.50961 13006 ft 291 kts 176°
2026-05-04 00:04 -12.38596 -38.50938 12637 ft 290 kts 176°
2026-05-04 00:04 -12.40605 -38.50916 12257 ft 288 kts 176°
2026-05-04 00:05 -12.42613 -38.50894 11882 ft 287 kts 176°
2026-05-04 00:05 -12.44605 -38.50872 11518 ft 286 kts 176°
2026-05-04 00:05 -12.46399 -38.50853 11175 ft 285 kts 177°
2026-05-04 00:05 -12.48333 -38.50832 10831 ft 284 kts 177°
2026-05-04 00:06 -12.50303 -38.50810 10467 ft 283 kts 177°
2026-05-04 00:06 -12.52261 -38.50788 10119 ft 282 kts 177°
2026-05-04 00:06 -12.54224 -38.50766 9760 ft 280 kts 177°
2026-05-04 00:06 -12.56157 -38.50745 9412 ft 278 kts 177°
2026-05-04 00:07 -12.58049 -38.50726 9080 ft 275 kts 177°
2026-05-04 00:07 -12.59294 -38.50713 8852 ft 273 kts 177°
2026-05-04 00:07 -12.61168 -38.50693 8511 ft 271 kts 177°
2026-05-04 00:07 -12.63044 -38.50673 8175 ft 268 kts 177°
2026-05-04 00:08 -12.64901 -38.50653 7830 ft 267 kts 176°
2026-05-04 00:08 -12.66746 -38.50633 7497 ft 264 kts 176°
2026-05-04 00:08 -12.68582 -38.50613 7178 ft 262 kts 176°
2026-05-04 00:08 -12.70400 -38.50593 6847 ft 260 kts 176°
2026-05-04 00:09 -12.72194 -38.50574 6548 ft 257 kts 176°
2026-05-04 00:09 -12.73976 -38.50555 6206 ft 255 kts 176°
2026-05-04 00:09 -12.75753 -38.50534 5850 ft 255 kts 176°
2026-05-04 00:09 -12.77518 -38.50513 5497 ft 254 kts 176°
2026-05-04 00:10 -12.79282 -38.50494 5139 ft 253 kts 176°
2026-05-04 00:10 -12.81095 -38.50473 4780 ft 253 kts 177°
2026-05-04 00:10 -12.82873 -38.50454 4444 ft 251 kts 177°
2026-05-04 00:10 -12.84638 -38.50436 4076 ft 250 kts 177°
2026-05-04 00:11 -12.86379 -38.50418 3753 ft 249 kts 177°
2026-05-04 00:11 -12.88120 -38.50397 3455 ft 247 kts 177°
2026-05-04 00:11 -12.89829 -38.50379 3134 ft 244 kts 177°
2026-05-04 00:11 -12.91482 -38.50330 3010 ft 233 kts 168°
2026-05-04 00:12 -12.92894 -38.49680 2989 ft 214 kts 137°
2026-05-04 00:12 -12.93672 -38.48479 2869 ft 198 kts 107°
2026-05-04 00:12 -12.93784 -38.47139 2617 ft 190 kts 88°
2026-05-04 00:12 -12.93579 -38.45821 2403 ft 178 kts 81°
2026-05-04 00:13 -12.93327 -38.44637 2167 ft 164 kts 81°
2026-05-04 00:13 -12.93113 -38.43553 1951 ft 144 kts 82°
2026-05-04 00:13 -12.92923 -38.42626 1771 ft 130 kts 83°
2026-05-04 00:13 -12.92742 -38.41684 1603 ft 135 kts 82°
2026-05-04 00:14 -12.92554 -38.40761 1418 ft 134 kts 83°
2026-05-04 00:14 -12.92369 -38.39830 1254 ft 133 kts 83°
2026-05-04 00:14 -12.92186 -38.38908 1083 ft 129 kts 82°
2026-05-04 00:14 -12.92003 -38.38002 917 ft 134 kts 83°
2026-05-04 00:15 -12.91818 -38.37063 756 ft 134 kts 82°
2026-05-04 00:15 -12.91632 -38.36142 586 ft 128 kts 83°
2026-05-04 00:15 -12.91462 -38.35276 415 ft 126 kts 82°
2026-05-04 00:15 -12.91283 -38.34380 266 ft 134 kts 83°
2026-05-04 00:16 -12.91091 -38.33412 120 ft 138 kts 81°
2026-05-04 00:16 -12.90897 -38.32456 50 ft 119 kts 81°
2026-05-04 00:16 -12.90795 -38.31935 47 ft 31 kts 79°
2026-05-04 00:16 -12.90788 -38.31751 47 ft 24 kts 119°
2026-05-04 00:17 -12.90894 -38.31727 53 ft 8 kts 220°
2026-05-04 00:17 -12.90895 -38.31728 53 ft 0 kts 221°
2026-05-04 00:18 -12.90913 -38.31756 53 ft 10 kts 243°
2026-05-04 00:18 -12.90934 -38.31842 53 ft 15 kts 258°
2026-05-04 00:18 -12.90961 -38.31964 50 ft 20 kts 257°
2026-05-04 00:18 -12.90988 -38.32108 51 ft 22 kts 259°
2026-05-04 00:19 -12.91022 -38.32275 52 ft 24 kts 259°
2026-05-04 00:19 -12.91057 -38.32451 50 ft 26 kts 259°
2026-05-04 00:19 -12.91151 -38.32584 49 ft 23 kts 252°
2026-05-04 00:19 -12.91176 -38.32695 48 ft 25 kts 257°
2026-05-04 00:20 -12.91210 -38.32875 50 ft 27 kts 258°
2026-05-04 00:20 -12.91248 -38.33064 45 ft 28 kts 259°
2026-05-04 00:20 -12.91282 -38.33256 43 ft 14 kts 259°
2026-05-04 00:20 -12.91295 -38.33273 42 ft 4 kts 217°
2026-05-04 00:21 -12.91334 -38.33271 43 ft 7 kts 175°
2026-05-04 00:21 -12.91341 -38.33270 43 ft 0 kts 175°